Location: Village de las Huertas
(35.3014°N, 106.4095°W)
Time: 08:59:31
(UTC+00:00)

Cosmos 1602 Rocket - Pass Details

Date: 29 October 2020
Orbit: 603 x 634 km, 82.5° (Epoch: 04 December)

Event Time Altitude Azimuth Distance (km) Brightness Sun altitude
Rises 12:41:45 0° 187° (S) 2,883 7.0 -9.4°
Reaches altitude 10° 12:43:57 10° 188° (S) 1,986 6.2 -9.0°
Maximum altitude 12:48:22 83° 277° (W) 637 3.6 -8.1°
Drops below altitude 10° 12:52:51 10° 5° (N) 2,016 6.1 -7.2°
Sets 12:55:06 0° 6° (N) 2,931 7.0 -6.7°
